Location: Cuzcurrita-R�o Tir�n
(42.5415°N, 2.9642°W)
Time: 09:26:40
(UTC+00:00)

Cosmos 1515 - Pass Details

Date: 27 February 2020
Orbit: 507 x 516 km, 82.5° (Epoch: 03 April)

Event Time Altitude Azimuth Distance (km) Brightness Sun altitude
Rises 19:46:10 0° 351° (N) 2,621 7.5 -20.6°
Reaches altitude 10° 19:48:18 10° 351° (N) 1,731 6.5 -21.0°
Maximum altitude 19:52:06 86° 266° (W) 514 3.6 -21.7°
Enters shadow 19:52:39 64° 181° (S) 567 3.7 -21.8°
